Temp
65 65 65 66 66 66 66 66 66 66 67 67 68 69 69 69 71 71 71 71 72 71 71 71 71 71 71 71 70 70 70 69 69 69 68 68 68 68 67 67 66 67
64 65 66 66 66 66 67 67 66 67 67 66 64 63 65 69 70 71 71 71 72 72 71 71 71 71 70 70 70 69 69 69 69 70 68 68 68 68 68 67 67 67
64 64 65 65 65 66 66 67 67 67 67 67 68 67 68 71 71 71 71 71 71 71 71 71 71 71 71 70 70 70 69 69 69 69 69 69 68 68 68 68 67 67
63 64 65 66 66 66 66 66 66 66 67 67 68 69 70 71 71 71 70 72 71 71 71 71 70 70 71 71 70 70 70 70 70 69 69 69 69 69 68 68 67 67
64 64 65 65 66 66 66 66 66 66 67 68 69 69 70 71 71 71 71 71 71 71 71 70 70 70 70 70 70 70 70 70 70 69 69 68 69 68 68 68 67 67
65 66 66 65 66 66 65 66 66 66 67 68 69 70 71 71 71 71 71 70 70 71 71 70 70 70 70 70 70 70 69 69 70 69 69 69 69 69 69 68 68 67
64 65 65 66 65 65 65 65 66 67 67 68 69 69 71 70 71 71 71 71 71 71 71 70 70 70 70 70 69 69 69 69 70 69 69 69 69 68 69 68 68 68
65 65 66 66 65 64 64 65 66 66 67 68 68 70 70 70 71 71 71 71 71 70 70 71 70 70 70 70 69 69 69 69 69 69 69 69 69 69 68 68 68 68
65 65 65 65 65 64 64 64 65 66 68 68 68 69 70 71 71 71 70 70 70 70 70 70 70 70 70 70 69 69 69 69 69 69 69 69 68 69 69 68 67 68
64 64 64 64 64 65 64 64 65 66 68 68 68 69 69 70 71 71 71 70 70 70 70 70 70 70 70 70 70 70 69 69 69 69 70 69 70 70 69 68 68 67
64 64 63 63 64 64 64 64 64 65 67 68 68 68 69 69 70 70 70 70 70 70 70 70 70 70 70 70 70 70 70 70 69 69 69 69 70 70 70 69 68 68
64 63 63 63 64 64 64 64 64 65 66 67 68 68 68 69 69 69 70 70 71 71 71 71 71 71 70 70 70 70 70 70 70 69 69 70 70 70 71 70 69 69
63 63 63 63 64 64 64 64 64 64 65 66 67 68 68 68 69 69 70 71 71 71 71 71 71 71 70 70 70 70 70 70 70 69 69 69 69 70 71 70 70 70
63 64 64 64 64 64 64 64 64 64 65 66 67 67 67 68 68 69 69 70 71 70 70 71 70 70 70 70 70 70 70 70 70 69 69 69 69 69 69 70 70 70
63 64 64 64 64 63 63 63 64 64 65 65 66 66 67 67 67 68 67 65 63 63 63 64 65 68 69 70 70 69 70 69 69 69 68 68 68 68 69 69 69 70
63 64 63 63 63 63 63 63 64 64 64 64 65 66 66 66 67 67 67 65 65 64 64 65 64 64 62 58 59 68 70 70 69 69 68 68 67 67 68 68 69 70
63 63 63 63 63 63 63 63 63 64 64 64 64 65 65 64 64 65 64 64 65 64 64 64 65 65 58 54 52 53 64 68 69 68 68 68 67 67 67 67 68 69
63 63 63 63 63 63 63 63 64 63 63 64 64 64 64 64 63 64 64 64 64 64 64 64 65 60 51 52 52 51 56 67 68 68 68 68 68 67 68 68 68 68
63 63 63 62 63 63 63 63 64 64 63 64 64 65 65 64 64 64 63 64 64 64 64 64 65 55 50 51 50 49 50 61 70 69 68 68 68 68 68 68 68 67
62 63 62 62 63 63 63 63 63 63 64 64 64 64 64 64 64 64 64 64 64 64 64 65 64 57 50 51 50 49 49 54 70 69 69 69 69 69 69 68 68 68
62 62 62 62 62 63 63 63 63 64 64 64 64 63 63 64 64 64 64 65 65 65 64 64 65 54 49 49 50 48 48 50 68 69 69 69 69 69 69 69 69 68
62 62 62 62 62 62 62 63 63 63 63 64 63 64 64 64 64 64 64 64 64 64 63 63 65 52 49 49 49 48 46 54 63 67 68 68 69 69 69 69 69 69
61 62 62 62 62 62 63 63 63 63 63 64 63 63 63 63 63 63 64 64 64 64 64 63 64 55 48 49 48 48 48 58 60 64 66 67 67 68 68 68 68 69
60 61 61 61 61 62 62 63 64 64 64 64 63 63 63 63 64 64 64 64 64 64 64 64 64 59 49 49 48 46 52 59 61 63 65 66 66 67 67 67 68 67
59 59 60 60 61 61 62 62 63 63 63 63 63 64 64 64 64 64 64 64 64 64 62 63 64 60 49 48 47 46 52 62 62 63 64 64 65 65 65 66 66 65
57 58 58 59 60 60 60 61 61 61 62 62 63 63 63 63 63 63 63 63 64 64 64 64 63 64 57 48 47 45 49 62 63 62 62 62 63 64 64 63 64 65
MSLP
1008.43 1007.95 1008.03 1008.27 1008.51 1008.75 1009.11 1009.47 1009.71 1009.91 1010.03 1010.15 1010.31 1010.35 1010.55 1010.75 1010.87 1011.07 1011.35 1011.55 1011.67 1011.87 1012.11 1012.31 1012.43 1012.67 1012.91 1013.15 1013.39 1013.71 1013.99 1014.15 1014.27 1014.43 1014.75 1015.03 1015.35 1015.71 1016.11 1016.43 1016.71 1016.83
1008.71 1008.55 1007.95 1007.95 1008.23 1008.55 1008.79 1008.95 1009.19 1009.35 1009.55 1009.67 1010.15 1011.11 1011.19 1010.95 1010.83 1010.75 1010.87 1011.19 1011.39 1011.55 1011.71 1011.95 1012.15 1012.39 1012.71 1012.99 1013.19 1013.47 1013.75 1013.91 1014.11 1014.15 1014.51 1014.79 1015.03 1015.35 1015.63 1015.99 1016.27 1016.47
1008.35 1008.71 1008.59 1008.03 1007.99 1008.19 1008.43 1008.55 1008.75 1008.95 1009.23 1009.43 1009.51 1009.67 1009.55 1009.55 1010.03 1010.35 1010.47 1010.67 1011.03 1011.19 1011.43 1011.59 1011.87 1012.07 1012.35 1012.63 1012.95 1013.23 1013.51 1013.71 1013.95 1014.03 1014.23 1014.51 1014.75 1015.03 1015.19 1015.55 1015.95 1016.15
1007.23 1008.35 1008.67 1008.39 1007.71 1007.79 1007.95 1008.31 1008.59 1008.87 1009.07 1009.39 1009.43 1009.55 1009.67 1009.43 1009.43 1009.71 1009.91 1010.15 1010.59 1010.83 1011.03 1011.27 1011.51 1011.79 1012.07 1012.31 1012.67 1012.99 1013.15 1013.35 1013.47 1013.75 1014.07 1014.27 1014.43 1014.63 1014.87 1015.19 1015.55 1015.79
1006.27 1006.95 1008.11 1008.55 1008.11 1007.51 1007.71 1008.03 1008.31 1008.55 1008.75 1008.83 1009.03 1009.27 1009.39 1009.47 1009.47 1009.39 1009.47 1009.63 1009.91 1010.35 1010.71 1010.95 1011.23 1011.55 1011.75 1012.07 1012.31 1012.71 1012.91 1013.11 1013.27 1013.51 1013.83 1014.11 1014.19 1014.39 1014.55 1014.87 1015.23 1015.51
1005.47 1006.03 1006.95 1008.07 1008.23 1007.75 1007.55 1007.71 1007.83 1008.15 1008.39 1008.63 1008.75 1008.83 1008.95 1009.03 1009.23 1009.35 1009.31 1009.39 1009.51 1009.87 1010.23 1010.55 1010.91 1011.19 1011.51 1011.79 1012.07 1012.35 1012.63 1012.91 1013.07 1013.31 1013.63 1013.83 1014.03 1014.11 1014.27 1014.51 1014.87 1015.15
1005.07 1005.63 1006.35 1007.11 1007.75 1007.91 1007.47 1007.27 1007.43 1007.71 1007.87 1007.99 1008.27 1008.51 1008.55 1008.79 1008.91 1009.03 1009.15 1009.19 1009.31 1009.55 1009.83 1010.19 1010.51 1010.91 1011.19 1011.51 1011.83 1012.15 1012.39 1012.59 1012.87 1013.11 1013.39 1013.59 1013.79 1014.03 1014.03 1014.15 1014.43 1014.71
1004.79 1005.31 1005.95 1006.51 1007.15 1007.51 1007.63 1007.27 1007.27 1007.39 1007.51 1007.75 1007.99 1007.99 1008.15 1008.39 1008.63 1008.75 1008.83 1008.99 1009.11 1009.23 1009.47 1009.83 1010.19 1010.51 1010.87 1011.23 1011.63 1011.95 1012.19 1012.35 1012.67 1012.87 1013.15 1013.39 1013.59 1013.83 1013.87 1013.91 1014.07 1014.31
1004.43 1005.07 1005.59 1006.07 1006.59 1006.99 1007.39 1007.31 1007.07 1007.11 1007.23 1007.47 1007.59 1007.75 1007.83 1007.99 1008.23 1008.39 1008.51 1008.67 1008.87 1008.99 1009.15 1009.47 1009.79 1010.19 1010.51 1010.87 1011.19 1011.51 1011.83 1012.07 1012.23 1012.51 1012.75 1013.07 1013.31 1013.39 1013.55 1013.71 1013.91 1013.95
1004.35 1004.71 1005.19 1005.63 1006.07 1006.31 1006.71 1006.99 1006.99 1006.95 1006.95 1007.11 1007.23 1007.43 1007.63 1007.71 1007.83 1008.03 1008.23 1008.35 1008.55 1008.75 1008.99 1009.19 1009.47 1009.83 1010.19 1010.51 1010.75 1011.03 1011.31 1011.59 1011.83 1012.07 1012.27 1012.47 1012.71 1012.95 1013.19 1013.43 1013.51 1013.75
1004.07 1004.39 1004.83 1005.15 1005.43 1005.67 1005.99 1006.43 1006.83 1006.83 1006.75 1006.83 1007.07 1007.27 1007.31 1007.47 1007.63 1007.71 1007.95 1008.11 1008.31 1008.47 1008.79 1009.03 1009.19 1009.47 1009.87 1010.19 1010.43 1010.63 1010.83 1011.11 1011.43 1011.67 1011.91 1012.07 1012.23 1012.51 1012.75 1013.03 1013.23 1013.31
1003.79 1004.07 1004.35 1004.59 1004.87 1005.15 1005.39 1005.79 1006.35 1006.63 1006.59 1006.59 1006.75 1006.99 1007.11 1007.19 1007.35 1007.55 1007.71 1007.91 1008.03 1008.19 1008.43 1008.71 1008.91 1009.19 1009.55 1009.83 1010.11 1010.39 1010.63 1010.79 1010.99 1011.27 1011.51 1011.75 1011.95 1012.19 1012.39 1012.59 1012.87 1013.03
1003.39 1003.55 1003.71 1003.99 1004.39 1004.71 1004.91 1005.31 1005.83 1006.19 1006.35 1006.39 1006.43 1006.67 1006.91 1007.03 1007.07 1007.27 1007.39 1007.63 1007.79 1007.95 1008.15 1008.35 1008.59 1008.87 1009.19 1009.55 1009.87 1010.19 1010.43 1010.63 1010.79 1011.03 1011.27 1011.51 1011.71 1011.87 1012.03 1012.27 1012.47 1012.67
1002.91 1002.95 1003.15 1003.47 1003.87 1004.35 1004.67 1004.87 1005.31 1005.83 1006.07 1006.03 1006.15 1006.43 1006.63 1006.75 1006.91 1007.03 1007.15 1007.39 1007.55 1007.71 1007.83 1008.03 1008.35 1008.71 1008.99 1009.31 1009.63 1009.91 1010.23 1010.47 1010.63 1010.87 1011.15 1011.35 1011.51 1011.67 1011.83 1012.03 1012.15 1012.27
1002.39 1002.51 1002.79 1003.15 1003.63 1004.15 1004.51 1004.75 1004.95 1005.35 1005.71 1005.83 1005.95 1006.11 1006.23 1006.43 1006.59 1006.83 1007.19 1007.55 1007.95 1008.27 1008.51 1008.67 1008.91 1008.95 1008.99 1009.19 1009.55 1009.87 1010.03 1010.31 1010.51 1010.75 1010.99 1011.31 1011.47 1011.59 1011.71 1011.87 1011.99 1011.99
1001.99 1002.23 1002.51 1002.87 1003.35 1003.75 1004.11 1004.39 1004.63 1005.07 1005.51 1005.71 1005.79 1005.87 1006.07 1006.27 1006.47 1006.67 1006.91 1007.23 1007.51 1007.87 1008.23 1008.55 1008.95 1009.31 1009.51 1009.95 1009.95 1009.87 1009.95 1010.11 1010.35 1010.55 1010.79 1011.03 1011.35 1011.55 1011.71 1011.79 1011.79 1011.79
1001.63 1001.91 1002.19 1002.55 1002.83 1003.23 1003.71 1004.11 1004.43 1004.79 1005.23 1005.47 1005.63 1005.83 1006.03 1006.23 1006.39 1006.63 1006.83 1006.95 1007.27 1007.67 1007.99 1008.23 1008.19 1007.99 1008.07 1008.67 1008.95 1009.35 1009.91 1010.31 1010.39 1010.47 1010.55 1010.71 1010.99 1011.31 1011.59 1011.75 1011.79 1011.71
1001.23 1001.55 1001.91 1002.15 1002.51 1002.91 1003.27 1003.67 1004.07 1004.51 1004.99 1005.19 1005.39 1005.63 1005.87 1006.11 1006.31 1006.39 1006.51 1006.75 1007.07 1007.39 1007.63 1007.79 1007.87 1007.87 1008.11 1008.07 1008.03 1008.27 1008.83 1009.55 1010.07 1010.23 1010.39 1010.51 1010.71 1010.95 1011.15 1011.39 1011.55 1011.63
1000.87 1001.27 1001.59 1001.91 1002.19 1002.47 1002.91 1003.39 1003.79 1004.23 1004.67 1004.99 1005.15 1005.15 1005.43 1005.79 1005.95 1006.15 1006.31 1006.43 1006.71 1007.07 1007.27 1007.43 1007.51 1007.35 1007.59 1007.87 1008.11 1008.35 1008.47 1008.67 1009.03 1009.43 1009.87 1010.11 1010.27 1010.43 1010.63 1010.87 1011.15 1011.39
1000.55 1000.91 1001.31 1001.59 1001.87 1002.27 1002.75 1003.19 1003.51 1003.79 1004.11 1004.51 1004.79 1004.99 1005.23 1005.43 1005.63 1005.87 1005.99 1006.15 1006.27 1006.51 1006.67 1006.75 1006.91 1007.03 1007.23 1007.35 1007.55 1007.91 1008.31 1008.51 1008.31 1008.63 1008.99 1009.27 1009.55 1009.79 1010.03 1010.35 1010.63 1010.95
1000.43 1000.75 1001.11 1001.43 1001.79 1002.15 1002.59 1002.91 1003.19 1003.43 1003.83 1004.19 1004.55 1004.79 1004.95 1005.11 1005.31 1005.51 1005.63 1005.71 1005.87 1005.95 1006.11 1006.27 1006.27 1006.43 1006.75 1007.03 1007.35 1007.75 1008.11 1008.55 1008.27 1008.23 1008.39 1008.55 1008.71 1008.95 1009.27 1009.59 1009.91 1010.23
1000.23 1000.59 1000.95 1001.31 1001.67 1001.99 1002.35 1002.67 1002.87 1003.15 1003.47 1003.83 1004.19 1004.51 1004.67 1004.83 1004.99 1005.15 1005.35 1005.51 1005.59 1005.71 1005.91 1006.03 1005.87 1005.99 1006.27 1006.59 1006.95 1007.43 1008.11 1008.79 1008.59 1008.47 1008.35 1008.23 1008.23 1008.39 1008.63 1008.83 1009.11 1009.43
1000.15 1000.51 1000.87 1001.19 1001.51 1001.83 1002.11 1002.31 1002.59 1002.83 1003.15 1003.43 1003.91 1004.19 1004.47 1004.67 1004.83 1004.99 1005.07 1005.27 1005.47 1005.55 1005.67 1005.67 1005.63 1005.67 1005.91 1006.19 1006.55 1007.07 1007.91 1008.35 1008.47 1008.51 1008.39 1008.27 1008.07 1008.03 1008.15 1008.35 1008.55 1008.75
1000.15 1000.43 1000.75 1001.07 1001.39 1001.63 1001.79 1001.95 1002.11 1002.39 1002.75 1003.03 1003.39 1003.71 1003.99 1004.15 1004.35 1004.59 1004.75 1004.91 1005.15 1005.27 1005.27 1005.39 1005.35 1005.35 1005.59 1005.75 1006.11 1006.75 1007.27 1007.51 1007.71 1007.87 1007.99 1008.03 1007.95 1007.87 1007.91 1008.07 1008.11 1008.23
1000.19 1000.43 1000.71 1000.99 1001.23 1001.35 1001.43 1001.67 1001.95 1002.23 1002.51 1002.79 1002.99 1003.19 1003.43 1003.59 1003.83 1004.11 1004.35 1004.51 1004.63 1004.75 1004.79 1004.99 1004.99 1005.03 1005.27 1005.55 1005.99 1006.55 1006.91 1007.03 1007.27 1007.47 1007.63 1007.55 1007.51 1007.63 1007.71 1007.79 1007.87 1007.95
1000.51 1000.67 1000.87 1001.03 1001.11 1001.27 1001.39 1001.59 1001.83 1002.19 1002.51 1002.75 1002.91 1003.03 1003.23 1003.39 1003.51 1003.67 1003.87 1004.03 1004.11 1004.35 1004.43 1004.47 1004.59 1004.59 1004.79 1005.07 1005.55 1006.23 1006.47 1006.51 1006.79 1007.11 1007.07 1007.03 1007.07 1007.15 1007.43 1007.63 1007.71 1007.75
Wind_Speed
11 10 11 11 11 10 10 10 9 10 9 7 7 7 8 8 9 10 11 10 10 10 9 9 10 10 9 9 10 9 9 10 9 8 9 8 8 8 7 8 7 7
10 10 9 10 9 8 8 10 11 12 12 11 9 5 5 5 9 11 11 11 11 11 10 10 10 10 9 9 9 10 8 8 9 6 8 9 8 8 8 8 9 7
6 9 9 10 11 12 12 12 12 11 11 11 11 12 14 14 14 12 11 12 12 11 10 10 10 10 10 10 10 9 9 9 9 8 8 9 8 8 8 7 7 9
8 8 9 10 11 12 12 11 10 9 8 9 11 10 10 10 12 14 13 14 12 11 10 10 11 10 10 11 10 9 9 9 9 8 8 7 8 8 8 7 7 7
11 10 8 10 10 11 10 11 12 11 11 11 10 11 11 11 11 12 13 13 13 13 11 11 10 10 11 10 10 9 9 9 8 9 8 9 8 8 7 7 8 9
10 9 10 11 11 10 11 12 12 12 12 11 12 11 12 12 11 12 12 13 12 12 12 12 11 11 11 10 9 9 9 8 8 9 9 9 8 7 6 7 8 9
11 11 12 12 12 11 11 12 12 11 12 12 11 12 12 12 12 13 13 12 12 11 12 11 12 11 10 9 9 10 9 9 8 9 10 8 7 8 8 8 9 9
12 12 12 11 12 11 11 10 11 11 11 10 12 12 12 12 12 11 11 12 11 12 11 11 11 11 10 9 10 10 9 7 8 9 9 9 8 9 9 8 8 9
11 11 12 13 13 11 11 11 11 11 10 11 11 11 11 11 11 11 11 11 10 10 11 11 11 11 10 11 11 11 11 9 9 10 10 10 10 11 10 8 9 9
10 11 13 13 13 12 13 12 10 10 10 11 11 10 11 10 10 11 10 11 11 10 10 11 11 10 10 11 12 12 11 11 11 10 11 11 11 11 10 9 11 9
12 12 13 14 15 13 13 12 10 10 10 11 10 10 10 10 10 9 10 11 11 12 11 11 11 11 11 11 10 10 11 11 11 10 11 11 11 11 9 10 10 10
13 13 14 15 15 13 14 12 11 11 10 10 10 11 11 11 11 11 11 12 11 12 11 11 11 11 11 11 11 10 9 10 10 10 11 11 10 10 10 10 10 9
13 14 15 14 13 12 11 11 11 11 11 11 11 11 11 11 11 12 11 11 12 11 12 11 11 10 10 10 10 9 10 10 10 10 10 9 9 10 10 10 10 9
14 15 15 14 12 10 10 11 11 10 11 11 10 11 12 12 12 12 11 11 10 10 10 9 9 10 9 9 9 9 9 9 9 9 10 9 9 9 9 9 9 9
14 13 12 11 10 9 9 10 11 11 10 10 10 11 10 11 10 10 9 6 1 2 1 1 3 4 5 7 8 9 8 9 9 8 8 8 8 8 8 8 8 8
13 11 11 10 10 11 11 10 10 10 10 10 10 10 9 9 9 9 10 10 10 8 7 6 7 8 8 13 10 5 7 6 7 7 8 7 7 7 7 8 9 9
11 11 11 12 12 11 10 10 10 9 9 10 9 9 9 8 8 9 8 9 10 9 9 8 10 12 23 23 18 13 8 7 6 7 7 7 7 7 8 8 8 9
11 11 11 11 11 11 11 10 9 9 9 9 9 10 8 7 8 9 9 9 9 9 9 10 10 9 14 19 19 19 16 12 9 7 7 7 7 8 7 8 9 8
11 11 11 11 11 11 10 10 10 10 10 9 10 10 9 10 10 9 10 10 10 11 10 11 11 13 17 17 16 16 19 17 11 10 9 8 9 9 9 9 8 8
11 11 12 11 11 10 10 10 11 11 10 9 8 8 9 10 10 10 9 10 11 11 12 11 12 13 17 19 18 19 19 17 12 12 12 11 11 11 10 10 10 9
10 11 10 10 10 10 10 10 11 10 10 9 9 9 10 10 11 11 11 11 11 11 11 11 10 15 17 18 18 17 17 14 11 11 11 11 12 12 12 11 11 10
10 10 10 10 10 10 11 11 11 11 11 9 8 8 8 8 8 9 10 10 10 11 10 10 10 15 17 18 19 18 12 7 8 9 10 11 11 11 11 11 11 11
8 9 9 10 10 10 11 10 10 10 9 8 9 8 8 9 9 9 9 9 10 10 11 11 11 14 17 18 19 19 12 7 9 9 9 10 10 11 11 11 11 11
6 7 8 8 9 10 10 10 10 9 10 10 11 10 10 10 10 9 9 10 11 11 12 11 11 12 18 19 19 18 14 12 11 11 11 10 10 9 8 9 11 17
6 7 8 8 9 9 9 9 9 9 8 9 9 10 10 10 10 10 10 10 11 12 14 14 11 11 15 17 16 17 15 10 10 10 10 11 11 10 8 8 9 11
3 4 5 6 6 4 4 6 6 6 7 8 8 8 8 9 9 10 12 11 11 12 12 13 13 11 13 19 17 17 19 12 10 10 12 12 11 11 10 8 8 8
Wind_Direction
237 211 195 192 194 194 189 190 192 195 204 213 215 199 188 186 186 189 197 206 208 205 199 195 194 195 193 187 185 187 191 197 196 189 196 195 203 195 196 190 191 197
260 238 213 193 191 188 190 191 190 194 197 189 175 182 244 221 206 197 196 200 206 207 198 195 195 192 189 187 186 187 192 192 198 188 193 199 202 199 205 194 193 197
243 259 234 200 187 189 190 193 193 196 195 198 195 193 194 191 191 198 199 198 205 206 198 195 193 192 189 188 184 189 190 191 198 190 194 201 199 203 208 191 187 189
180 232 248 230 200 192 192 192 196 196 192 197 203 199 211 208 196 193 194 197 202 204 199 193 192 192 192 190 187 192 193 195 195 184 197 200 205 204 207 188 190 191
192 188 221 244 231 200 191 195 197 195 196 199 198 197 203 211 210 201 195 195 196 199 197 197 191 192 192 193 191 195 193 197 192 189 197 203 206 200 204 191 193 198
187 182 189 224 233 213 193 200 200 195 198 199 200 200 205 201 202 207 205 199 198 196 196 195 192 194 193 195 192 198 194 196 194 192 199 207 207 202 198 194 197 201
188 188 192 203 222 227 212 201 200 197 198 199 194 200 201 202 202 204 206 203 199 196 195 192 192 192 193 194 195 197 196 196 191 194 203 210 206 209 207 198 201 204
191 189 196 198 209 219 223 209 201 198 198 193 199 203 200 201 202 203 205 203 200 196 194 194 193 194 191 191 197 198 196 191 192 195 204 208 203 214 207 207 202 206
196 192 192 194 201 208 219 220 208 199 194 196 199 201 202 203 203 203 202 202 204 202 195 195 195 196 194 192 198 198 196 194 194 196 202 206 209 214 208 201 204 210
201 198 194 195 199 202 208 216 211 200 197 201 201 197 199 202 203 203 201 202 205 206 203 200 197 196 195 199 201 199 198 197 196 199 203 209 211 212 207 201 208 206
201 198 199 200 201 198 200 204 208 205 199 199 198 202 200 199 202 203 205 205 209 209 204 204 201 196 196 201 205 203 200 198 198 200 205 210 212 212 207 205 206 208
199 199 203 204 202 198 194 193 200 205 201 197 196 200 199 201 201 199 205 208 212 214 211 206 202 198 199 202 203 203 203 202 200 201 206 210 211 213 211 206 208 200
200 201 204 204 201 198 191 186 192 201 200 198 196 198 199 201 205 206 206 207 209 211 215 209 203 199 199 201 201 201 204 204 202 203 206 209 212 212 210 207 204 194
202 203 203 201 196 192 189 186 187 195 202 200 195 199 202 203 204 207 208 211 217 220 218 209 197 197 201 201 201 201 203 205 203 203 206 208 210 209 207 207 203 196
202 202 200 195 186 182 187 187 187 193 200 199 197 200 202 204 204 203 201 187 156 88 58 7 322 268 210 198 197 205 203 204 205 205 205 209 213 213 211 210 209 204
198 195 188 182 179 183 188 188 187 189 194 200 202 202 201 197 196 196 199 200 203 196 199 190 199 226 238 266 274 240 205 205 204 207 205 208 212 216 217 218 217 213
189 189 180 181 183 183 182 183 186 185 192 196 198 198 196 191 186 190 191 196 196 199 206 204 209 203 196 201 207 217 219 227 223 212 207 205 208 208 215 218 227 227
187 182 181 182 179 181 181 183 181 182 191 193 189 190 190 180 187 194 190 191 192 195 200 199 209 215 207 203 199 195 187 195 211 214 203 206 204 207 213 215 220 225
179 177 180 178 181 181 179 175 177 184 191 194 193 190 182 186 197 193 191 191 192 197 201 202 214 197 192 203 209 203 194 192 201 197 199 202 203 206 212 213 213 215
174 175 177 180 178 175 172 175 179 186 190 195 195 184 186 191 194 198 195 192 194 197 204 208 210 194 193 197 200 202 202 196 202 196 197 200 202 206 209 211 209 210
170 171 175 173 172 171 173 178 181 184 188 190 190 191 190 191 195 198 201 199 196 198 204 212 214 196 192 198 203 203 205 202 211 206 201 201 202 203 206 206 206 207
169 171 173 172 173 175 179 184 183 183 186 185 188 193 195 198 204 205 208 207 203 203 207 213 216 202 199 198 201 205 193 201 230 221 212 206 203 203 205 205 204 203
168 168 170 172 175 178 183 183 180 179 182 175 186 186 187 192 201 205 208 208 207 208 210 216 218 206 200 200 199 196 174 188 206 220 224 220 213 207 205 204 202 201
150 157 164 169 174 184 186 185 182 182 184 180 187 188 191 194 198 205 206 206 208 212 212 216 221 211 203 204 197 187 180 190 197 202 213 220 226 216 204 204 206 201
152 158 167 173 184 192 185 182 184 186 186 183 192 193 199 198 198 203 207 207 210 214 213 216 221 217 206 210 199 181 183 194 195 202 204 214 215 216 211 207 208 202
125 148 164 178 186 174 162 174 167 165 173 180 193 197 202 205 203 204 207 210 208 211 214 215 220 219 203 203 194 184 185 186 188 192 211 211 210 210 205 207 204 205